Regional Weather Roundup
Issued by NWS

Home | Current Version | Previous Version | Graphics & Text | Print | Product List | Glossary On
Versions: 1 2 3 4 5 6 7 8 9 10 11 12 13 14 15 16 17 18 19 20 21 22 23 24 25 26 27 28 29 30 31 32 33 34 35 36 37 38 39 40 41 42 43 44 45 46 47 48 49 50
000
ASUS43 KOAX 101910
RWRNE

WEATHER ROUNDUP FOR NEBRASKA
NATIONAL WEATHER SERVICE OMAHA NE
100 PM CST SAT DEC 10 2016

NOTES: SATELLITE DATA IS BEING USED TO AUGMENT CLOUD COVER ABOVE
       12000 FEET.
       "FAIR" INDICATES FEW OR NO CLOUDS BELOW 12,000 FEET WITH NO
       SIGNIFICANT WEATHER AND/OR OBSTRUCTIONS TO VISIBILITY.

  * THESE STATIONS DO NOT REPORT WEATHER SUCH AS RAIN...SNOW OR FOG.

NEZ001>004-019>022-054>056-102000-
NEBRASKA PANHANDLE

CITY           SKY/WX    TMP DP  RH WIND       PRES   REMARKS
SCOTTSBLUFF    CLOUDY    23  16  74 SE5       29.79F WCI  17
ALLIANCE       CLOUDY    26  18  71 S12       29.77F WCI  16
CHADRON        CLOUDY    13   6  74 CALM      29.82F
KIMBALL        CLOUDY    39  31  73 W7        29.79F WCI  34
SIDNEY         CLOUDY    31  22  69 S9        29.80F WCI  23
$$

NEZ057>060-069>072-079>082-102000-
SOUTHWEST NEBRASKA

CITY           SKY/WX    TMP DP  RH WIND       PRES   REMARKS
NORTH PLATTE   CLOUDY    29  18  63 S13       29.91F WCI  19
IMPERIAL       CLOUDY    27  21  78 SE9       29.87F WCI  18
LEXINGTON      CLOUDY    29  19  67 S16       29.97F WCI  17
MCCOOK         CLOUDY    27  21  78 SE14      29.94F WCI  16
OGALLALA       CLOUDY    28  22  76 S7        29.87F WCI  21
$$

NEZ005>010-023>029-035>040-094-102000-
NORTH CENTRAL NEBRASKA

CITY           SKY/WX    TMP DP  RH WIND       PRES   REMARKS
VALENTINE      CLOUDY    13   8  81 E10       29.92F WCI   0
AINSWORTH      CLOUDY    23  19  85 S14       29.93F WCI  11
BROKEN BOW     CLOUDY    27  18  69 S17       29.94F WCI  14
O`NEILL        CLOUDY    25  19  78 SE18G25   30.00F WCI  11
ORD            CLOUDY    29  18  63 S16G25    29.98F WCI  17
THEDFORD       CLOUDY    27  20  75 S14G20    29.88F WCI  16
$$

NEZ041-046>049-061>064-073>077-083>087-102000-
SOUTH CENTRAL NEBRASKA

CITY           SKY/WX    TMP DP  RH WIND       PRES   REMARKS
GRAND ISLAND   CLOUDY    29  19  66 SE14G24   30.05F WCI  18
AURORA         CLOUDY    31  19  61 SE15G22   30.07F WCI  20
HASTINGS       CLOUDY    32  17  54 S18       30.04F WCI  20
HEBRON         CLOUDY    33  17  52 SE17      30.11F WCI  22
HOLDREGE       CLOUDY    29  19  67 S15       30.00F WCI  17
KEARNEY *      CLOUDY    30  18  59 S15       30.02F WCI  19
YORK           CLOUDY    30  18  59 SE13      30.10F WCI  20
$$

NEZ011>018-030>034-042>045-102000-
NORTHEAST NEBRASKA

CITY           SKY/WX    TMP DP  RH WIND       PRES   REMARKS
NORFOLK        CLOUDY    24  18  77 SE16      30.09F WCI  11
ALBION         CLOUDY    28  18  67 SE16      30.05F WCI  15
BLAIR          CLOUDY    29  19  66 SE14      30.18F WCI  19
FREMONT        CLOUDY    29  20  67 SE9       30.18F WCI  21
TEKAMAH        CLOUDY    25  19  78 SE15      30.22F WCI  13
WAYNE          CLOUDY    25  19  80 SE16      30.15F WCI  12
$$

NEZ050>053-065>068-078-088>093-102000-
SOUTHEAST NEBRASKA

CITY           SKY/WX    TMP DP  RH WIND       PRES   REMARKS
LINCOLN        CLOUDY    32  15  49 SE15      30.17F WCI  22
OMAHA EPPLEY   CLOUDY    30  16  56 S16       30.22F WCI  19
BEATRICE       CLOUDY    33  17  50 SE14      30.15F WCI  24
FALLS CITY     CLOUDY    33  16  49 SE12      30.21F WCI  24
NEBRASKA CITY  CLOUDY    30  12  47 SE9       30.20F WCI  22
PLATTSMOUTH    MOSUNNY   30  12  46 SE13G18   30.20F WCI  20
$$

NEZ044-045-051>053-067-102000-
OMAHA AREA

CITY           SKY/WX    TMP DP  RH WIND       PRES   REMARKS
OMAHA EPPLEY   CLOUDY    30  16  56 S16       30.22F WCI  19
BLAIR          CLOUDY    29  19  66 SE14      30.18F WCI  19
FREMONT        CLOUDY    29  20  67 SE9       30.18F WCI  21
MILLARD        CLOUDY    32  16  52 SE13      30.20F WCI  22
OFFUTT AFB     CLOUDY    31  15  53 SE14      30.20F WCI  20
PLATTSMOUTH    MOSUNNY   30  12  46 SE13G18   30.20F WCI  20
WAHOO          CLOUDY    30  15  53 SE16      30.17F WCI  19
$$




USA.gov is the U.S. government's official web portal to all federal, state and local government web resources and services.